When you browse on this site, cookies collect data to enhance your experience and personalize the content and advertising you see.
Visit our Privacy Policy to learn more. By continuing to use the site, you agree to this use of cookies and data.
  • In Romania
  • List of Countries
  • For 7 days
  • Water Temperature
  • Satellite Maps
  • Weather Map
  • Weather Widgets
  • user-avatar
    Login

    Hourly Weather Krasnystaw

    Today, 22 May, Wednesday

    Time Temperature Precipitation Wind Pressure Humidity
    00:00 +13°C° 0.5 mm 6 mps 737 mmHg 90%
    01:00 +13°C° 0.5 mm 6 mps 737 mmHg 91%
    02:00 +13°C° 0.5 mm 6 mps 737 mmHg 92%
    03:00 +13°C° 1.4 mm 6 mps 737 mmHg 92%
    04:00 +13°C° 1.4 mm 6 mps 737 mmHg 93%
    05:00 +13°C° 1.4 mm 6 mps 737 mmHg 94%
    06:00 +13°C° 1.3 mm 5 mps 737 mmHg 94%
    07:00 +13°C° 1.3 mm 5 mps 737 mmHg 93%
    08:00 +13°C° 1.3 mm 5 mps 737 mmHg 93%
    09:00 +14°C° 0.1 mm 5 mps 737 mmHg 90%
    10:00 +15°C° 0.1 mm 5 mps 738 mmHg 86%
    11:00 +16°C° 0.1 mm 5 mps 738 mmHg 83%
    12:00 +17°C° 0.2 mm 5 mps 738 mmHg 80%
    13:00 +17°C° 0.2 mm 5 mps 738 mmHg 78%
    14:00 +19°C° 0.2 mm 5 mps 738 mmHg 76%
    15:00 +19°C° 0.6 mm 5 mps 738 mmHg 76%
    16:00 +19°C° 0.6 mm 4 mps 738 mmHg 77%
    17:00 +19°C° 0.6 mm 4 mps 738 mmHg 77%
    18:00 +18°C° 0.2 mm 3 mps 738 mmHg 81%
    19:00 +17°C° 0.2 mm 3 mps 738 mmHg 85%
    20:00 +16°C° 0.2 mm 2 mps 738 mmHg 89%
    21:00 +15°C° 0 mm 2 mps 738 mmHg 90%
    22:00 +14°C° 0 mm 2 mps 738 mmHg 92%
    23:00 +13°C° 0 mm 2 mps 738 mmHg 93%

    Tomorrow, 23 May, Thursday

    Time Temperature Precipitation Wind Pressure Humidity
    00:00 +13°C° 0 mm 2 mps 738 mmHg 94%
    01:00 +12°C° 0 mm 1 mps 739 mmHg 94%
    02:00 +12°C° 0 mm 1 mps 739 mmHg 95%
    03:00 +12°C° 0 mm 1 mps 739 mmHg 95%
    04:00 +12°C° 0 mm 1 mps 739 mmHg 95%
    05:00 +10°C° 0 mm 0 mps 739 mmHg 96%
    06:00 +12°C° 0 mm 0 mps 740 mmHg 93%
    07:00 +14°C° 0 mm 1 mps 740 mmHg 90%
    08:00 +16°C° 0 mm 1 mps 740 mmHg 87%
    09:00 +16°C° 0.8 mm 1 mps 740 mmHg 86%
    10:00 +18°C° 0.8 mm 1 mps 740 mmHg 86%
    11:00 +18°C° 0.8 mm 1 mps 740 mmHg 85%
    12:00 +19°C° 0.6 mm 1 mps 740 mmHg 81%
    13:00 +20°C° 0.6 mm 1 mps 740 mmHg 77%
    14:00 +20°C° 0.6 mm 2 mps 740 mmHg 73%
    15:00 +20°C° 2.7 mm 2 mps 740 mmHg 76%
    16:00 +19°C° 2.7 mm 2 mps 740 mmHg 79%
    17:00 +19°C° 2.7 mm 2 mps 740 mmHg 81%
    18:00 +18°C° 1.3 mm 3 mps 740 mmHg 83%
    19:00 +17°C° 1.3 mm 3 mps 741 mmHg 85%
    20:00 +15°C° 1.3 mm 4 mps 741 mmHg 87%
    21:00 +15°C° 0.7 mm 4 mps 741 mmHg 90%
    22:00 +14°C° 0.7 mm 4 mps 741 mmHg 92%
    23:00 +14°C° 0.7 mm 5 mps 742 mmHg 95%

    Day after tomorrow, 24 May, Friday

    Time Temperature Precipitation Wind Pressure Humidity
    00:00 +14°C° 0.2 mm 5 mps 742 mmHg 95%
    01:00 +14°C° 0.2 mm 5 mps 742 mmHg 95%
    02:00 +13°C° 0.2 mm 6 mps 742 mmHg 95%
    03:00 +13°C° 0.2 mm 5 mps 742 mmHg 95%
    04:00 +12°C° 0.2 mm 5 mps 742 mmHg 95%
    05:00 +12°C° 0.2 mm 5 mps 742 mmHg 95%
    06:00 +12°C° 0 mm 5 mps 742 mmHg 94%
    07:00 +12°C° 0 mm 4 mps 742 mmHg 93%
    08:00 +12°C° 0 mm 4 mps 743 mmHg 92%
    09:00 +12°C° 0 mm 4 mps 743 mmHg 90%
    10:00 +13°C° 0 mm 4 mps 743 mmHg 88%
    11:00 +14°C° 0 mm 4 mps 743 mmHg 85%
    12:00 +15°C° 0 mm 4 mps 743 mmHg 82%
    13:00 +17°C° 0 mm 4 mps 743 mmHg 79%
    14:00 +18°C° 0 mm 4 mps 743 mmHg 76%
    15:00 +18°C° 0 mm 4 mps 743 mmHg 77%
    16:00 +18°C° 0 mm 4 mps 742 mmHg 78%
    17:00 +18°C° 0 mm 3 mps 742 mmHg 78%
    18:00 +17°C° 0 mm 3 mps 742 mmHg 81%
    19:00 +17°C° 0 mm 3 mps 742 mmHg 83%
    20:00 +16°C° 0 mm 3 mps 742 mmHg 85%
    21:00 +14°C° 0 mm 3 mps 742 mmHg 85%
    22:00 +13°C° 0 mm 3 mps 742 mmHg 85%
    23:00 +12°C° 0 mm 3 mps 742 mmHg 86%

    25 May, Saturday

    Time Temperature Precipitation Wind Pressure Humidity
    00:00 +11°C° 0 mm 3 mps 742 mmHg 87%
    01:00 +11°C° 0 mm 3 mps 742 mmHg 88%
    02:00 +10°C° 0 mm 3 mps 742 mmHg 90%
    03:00 +10°C° 0 mm 2 mps 742 mmHg 91%
    04:00 +10°C° 0 mm 2 mps 742 mmHg 92%
    05:00 +10°C° 0 mm 2 mps 742 mmHg 93%
    06:00 +13°C° 0 mm 2 mps 742 mmHg 90%
    07:00 +13°C° 0 mm 3 mps 742 mmHg 86%
    08:00 +16°C° 0 mm 3 mps 742 mmHg 83%
    09:00 +17°C° 0.3 mm 3 mps 742 mmHg 79%
    10:00 +18°C° 0.3 mm 4 mps 742 mmHg 74%
    11:00 +20°C° 0.3 mm 4 mps 742 mmHg 70%
    12:00 +20°C° 0.6 mm 5 mps 742 mmHg 70%
    13:00 +20°C° 0.6 mm 5 mps 741 mmHg 70%
    14:00 +20°C° 0.6 mm 6 mps 741 mmHg 70%
    15:00 +20°C° 0.3 mm 6 mps 741 mmHg 70%
    16:00 +20°C° 0.3 mm 5 mps 741 mmHg 71%
    17:00 +20°C° 0.3 mm 5 mps 741 mmHg 72%
    18:00 +18°C° 0.1 mm 4 mps 741 mmHg 76%
    19:00 +17°C° 0.1 mm 4 mps 741 mmHg 80%
    20:00 +16°C° 0.1 mm 3 mps 741 mmHg 84%
    21:00 +13°C° 0 mm 3 mps 742 mmHg 87%
    22:00 +12°C° 0 mm 3 mps 742 mmHg 89%
    23:00 +11°C° 0 mm 3 mps 742 mmHg 92%

    26 May, Sunday

    Time Temperature Precipitation Wind Pressure Humidity
    00:00 +10°C° 0 mm 3 mps 742 mmHg 92%
    01:00 +10°C° 0 mm 3 mps 742 mmHg 93%
    02:00 +9°C° 0 mm 3 mps 742 mmHg 93%
    03:00 +9°C° 0 mm 3 mps 742 mmHg 93%
    04:00 +8°C° 0 mm 3 mps 742 mmHg 94%
    05:00 +8°C° 0 mm 3 mps 742 mmHg 94%
    06:00 +10°C° 0 mm 3 mps 742 mmHg 89%
    07:00 +11°C° 0 mm 4 mps 742 mmHg 84%
    08:00 +13°C° 0 mm 5 mps 742 mmHg 79%
    09:00 +14°C° 0.1 mm 5 mps 742 mmHg 75%
    10:00 +15°C° 0.1 mm 6 mps 742 mmHg 71%
    11:00 +16°C° 0.1 mm 7 mps 741 mmHg 67%
    12:00 +16°C° 0.1 mm 7 mps 741 mmHg 67%
    13:00 +16°C° 0.1 mm 7 mps 741 mmHg 67%
    14:00 +16°C° 0.1 mm 7 mps 741 mmHg 67%
    15:00 +16°C° 0 mm 7 mps 741 mmHg 66%
    16:00 +16°C° 0 mm 7 mps 741 mmHg 64%
    17:00 +16°C° 0 mm 6 mps 741 mmHg 63%
    18:00 +15°C° 0 mm 5 mps 741 mmHg 69%
    19:00 +14°C° 0 mm 4 mps 741 mmHg 74%
    20:00 +13°C° 0 mm 3 mps 741 mmHg 80%
    21:00 +12°C° 0 mm 3 mps 741 mmHg 81%
    22:00 +12°C° 0 mm 3 mps 741 mmHg 82%
    23:00 +11°C° 0 mm 3 mps 741 mmHg 83%

    27 May, Monday

    Time Temperature Precipitation Wind Pressure Humidity
    00:00 +11°C° 0 mm 4 mps 741 mmHg 87%
    01:00 +10°C° 0 mm 4 mps 741 mmHg 90%
    02:00 +10°C° 0 mm 4 mps 742 mmHg 93%
    03:00 +10°C° 0.1 mm 4 mps 742 mmHg 92%
    04:00 +11°C° 0.1 mm 4 mps 742 mmHg 91%
    05:00 +11°C° 0.1 mm 4 mps 742 mmHg 90%
    06:00 +12°C° 0.1 mm 4 mps 742 mmHg 89%
    07:00 +13°C° 0.1 mm 5 mps 742 mmHg 87%
    08:00 +13°C° 0.1 mm 5 mps 743 mmHg 86%
    09:00 +14°C° 0.1 mm 5 mps 743 mmHg 84%
    10:00 +14°C° 0.1 mm 5 mps 743 mmHg 82%
    11:00 +15°C° 0.1 mm 5 mps 743 mmHg 80%
    12:00 +16°C° 0.1 mm 5 mps 743 mmHg 76%
    13:00 +19°C° 0.1 mm 5 mps 743 mmHg 72%
    14:00 +20°C° 0.1 mm 5 mps 742 mmHg 69%
    15:00 +20°C° 0.4 mm 4 mps 742 mmHg 71%
    16:00 +20°C° 0.4 mm 4 mps 742 mmHg 74%
    17:00 +20°C° 0.4 mm 4 mps 742 mmHg 77%
    18:00 +19°C° 0.5 mm 4 mps 741 mmHg 81%
    19:00 +18°C° 0.5 mm 4 mps 741 mmHg 86%
    20:00 +17°C° 0.5 mm 3 mps 741 mmHg 90%
    21:00 +17°C° 0 mm 3 mps 741 mmHg 90%
    22:00 +15°C° 0 mm 4 mps 741 mmHg 91%
    23:00 +15°C° 0 mm 4 mps 742 mmHg 92%
    Show more